TimeEDT,TemperatureF,Dew PointF,Humidity,Sea Level PressureIn,VisibilityMPH,Wind Direction,Wind SpeedMPH,Gust SpeedMPH,PrecipitationIn,Events,Conditions,WindDirDegrees,DateUTC
12:54 AM,48.9,45.0,86,29.95,10.0,Calm,Calm,-,N/A,,Clear,0,2012-09-30 04:54:00
1:54 AM,48.9,46.0,90,29.94,10.0,ENE,3.5,-,N/A,,Clear,60,2012-09-30 05:54:00
2:54 AM,48.9,46.0,90,29.93,10.0,Calm,Calm,-,N/A,,Clear,0,2012-09-30 06:54:00
3:54 AM,46.0,46.0,100,29.92,6.0,Calm,Calm,-,N/A,,Clear,0,2012-09-30 07:54:00
4:54 AM,45.0,43.0,93,29.91,10.0,Calm,Calm,-,N/A,,Clear,0,2012-09-30 08:54:00
5:54 AM,45.0,44.1,97,29.91,8.0,Calm,Calm,-,N/A,,Clear,0,2012-09-30 09:54:00
6:54 AM,43.0,42.1,97,29.90,7.0,Calm,Calm,-,N/A,,Clear,0,2012-09-30 10:54:00
7:54 AM,44.1,42.1,93,29.92,6.0,Calm,Calm,-,N/A,,Clear,0,2012-09-30 11:54:00
8:54 AM,48.0,46.0,93,29.92,6.0,Calm,Calm,-,N/A,,Clear,0,2012-09-30 12:54:00
10:54 AM,57.9,48.0,70,29.96,10.0,NE,10.4,-,N/A,,Clear,40,2012-09-30 14:54:00
11:54 AM,61.0,48.9,64,29.95,10.0,East,10.4,-,N/A,,Clear,80,2012-09-30 15:54:00
12:54 PM,64.9,46.0,50,29.94,10.0,NE,13.8,-,N/A,,Clear,50,2012-09-30 16:54:00
1:54 PM,66.0,45.0,47,29.93,10.0,ENE,13.8,-,N/A,,Clear,60,2012-09-30 17:54:00
2:54 PM,68.0,44.1,42,29.90,10.0,NNE,12.7,20.7,N/A,,Clear,30,2012-09-30 18:54:00
4:54 PM,68.0,41.0,37,29.88,10.0,ENE,9.2,-,N/A,,Clear,70,2012-09-30 20:54:00
5:54 PM,66.0,39.9,38,29.89,10.0,NE,8.1,-,N/A,,Clear,40,2012-09-30 21:54:00
6:54 PM,62.1,42.1,48,29.90,10.0,NE,4.6,-,N/A,,Clear,40,2012-09-30 22:54:00
7:54 PM,57.9,41.0,53,29.90,10.0,NE,5.8,-,N/A,,Clear,40,2012-09-30 23:54:00
8:54 PM,55.9,42.1,60,29.91,10.0,NE,3.5,-,N/A,,Clear,40,2012-10-01 00:54:00
9:54 PM,54.0,42.1,64,29.93,10.0,NE,5.8,-,N/A,,Clear,50,2012-10-01 01:54:00
10:54 PM,54.0,42.1,64,29.92,10.0,ENE,4.6,-,N/A,,Clear,60,2012-10-01 02:54:00